Weather Roundup
Issued by NWS

Home | Current Version | Previous Version | Text Only | Print | Product List | Glossary On
Versions: 1 2 3 4 5 6 7 8 9 10 11 12 13 14 15 16 17 18 19 20 21 22 23 24 25 26 27 28 29 30 31 32 33 34 35 36 37 38 39 40 41 42 43 44 45 46 47 48 49 50
144
NZUS93 KARX 250359
HRRWXR

CURRENT HOURLY OBSERVATIONS ACROSS
MUCH OF THE UPPER MISSISSIPPI VALLEY
NATIONAL WEATHER SERVICE LA CROSSE WI
1000 PM CST FRI FEB 24 2017


...SOUTHEAST MINNESOTA...


CITY           SKY/WX    TMP DP  RH WIND       PRES   REMARKS
ROCHESTER      CLOUDY    19  15  84 N17       29.79F FOG     WCI   4
ROCHESTER/MAYO CLOUDY    20  14  76 NW14G21   29.81S WCI   7
WINONA         CLOUDY    21  18  86 N12G20    29.83R FOG     WCI   9
AUSTIN         CLOUDY    19  12  73 N17G24    29.82R WCI   4
ALBERT LEA     PTCLDY    19  12  73 N15G21    29.84S WCI   5
DODGE CENTER   NOT AVBL
PRESTON        CLOUDY    18  14  86 N16G22    29.78S WCI   3
OWATONNA       CLOUDY    19  10  68 NW16      29.85S WCI   5
FARIBAULT      CLOUDY    21  10  63 NW14      29.88R WCI   8
$$

...ELSEWHERE IN MINNESOTA...


CITY           SKY/WX    TMP DP  RH WIND       PRES   REMARKS
MINNEAPOLIS    PTCLDY    22   9  57 N14       29.89S WCI   9
INTNL FALLS    CLEAR      9   1  70 N12       29.95F WCI  -6
DULUTH         CLOUDY    15   6  67 N12       29.84S WCI   2
RED WING       CLOUDY    21   9  58 N10       29.84S WCI  10
REDWOOD FALLS  CLOUDY    21  13  71 NW17G29   29.97R WCI   7
MANKATO          N/A     20  12  71 N15       29.90  WCI   6
WORTHINGTON    CLOUDY    18  12  77 NW23      29.97R WCI   0
FAIRMONT       CLOUDY    20  15  81 NW23G31   29.91R WCI   3
$$

...SOUTHWEST WISCONSIN...


CITY           SKY/WX    TMP DP  RH WIND       PRES   REMARKS
LA CROSSE      CLOUDY    22  16  78 N21G31    29.77S HAZE    WCI   6
PRAIRIE DU CHI LGT SNOW  24  20  82 NW13G23   29.73S WCI  13
BOSCOBEL       LGT SNOW  26  20  77 NW12G20   29.72R WCI  16
LONE ROCK      LGT SNOW  26  20  77 N12       29.69R WCI  16
PLATTEVILLE    CLOUDY    27  26  96 NW6       29.66S WCI  20
FORT MC COY    LGT SNOW  21  19  90 NW15G22   29.74S WCI   8
CAMP DOUGLAS   FLURRIES  21  18  86 NW10      29.70R WCI  10
MAUSTON-NEW LI LGT SNOW  22  19  85 NW8G17    29.68R WCI  13
VIROQUA        CLOUDY    20  18  91 N13       29.68F WCI   8
WIS DELLS      CLOUDY    23  20  89 N9        29.65R WCI  13
$$

...ELSEWHERE IN WISCONSIN...


CITY           SKY/WX    TMP DP  RH WIND       PRES   REMARKS
MILWAUKEE      CLOUDY    30  26  85 NW8       29.58R WCI  22
MADISON        LGT SNOW  26  23  88 N10       29.63R WCI  16
GREEN BAY      CLOUDY    24  23  96 N15G22    29.59F FOG     WCI  11
EAU CLAIRE     LGT SNOW  18  14  84 N9        29.81S FOG     WCI   7
BLACK RVR FLS  LGT SNOW  19  15  82 N13       29.75R WCI   7
MEDFORD        LGT SNOW  16  13  85 N14G21    29.68F WCI   2
WAUSAU         LGT SNOW  18  15  88 NW9       29.65F FOG     WCI   7
WIS RAPIDS     FLURRIES  20  16  84 N13G22    29.69R WCI   7
MARSHFIELD     LGT SNOW  18  13  80 N18G25    29.67F WCI   2
RICE LAKE      CLOUDY    20  11  68 CALM      29.83S
$$

...NORTHEAST IOWA...


CITY           SKY/WX    TMP DP  RH WIND       PRES   REMARKS
WATERLOO       LGT SNOW  23  18  81 NW21      29.80R WCI   8
DUBUQUE        LGT SNOW  26  24  92 N13       29.68R FOG     WCI  15
DECORAH        LGT SNOW  19  16  86 NW22G31   29.74S WCI   3
MASON CITY     CLOUDY    19  16  88 N20       29.85R FOG     WCI   3
CHARLES CITY   MIX PCPN  21  18  86 N15G25    29.81R WCI   8
OELWEIN        LGT SNOW  21  19  93 N21G29    29.77R WCI   6
$$

...ELSEWHERE IN IOWA...


CITY           SKY/WX    TMP DP  RH WIND       PRES   REMARKS
DES MOINES     FLURRIES  25  18  74 NW18G28   29.90R WCI  11
IOWA CITY      LGT SNOW  27  23  85 NW16      29.78R FOG     WCI  15
FORT DODGE     CLEAR     19  10  68 NW9       29.91R WCI   9
MARSHALLTOWN   MIX PCPN  23  19  85 NW20G26   29.83R WCI   8
CEDAR RAPIDS   LGT SNOW  24  21  88 N22G31    29.76R FOG     WCI   9
$$

...NORTHERN ILLINOIS...


CITY           SKY/WX    TMP DP  RH WIND       PRES   REMARKS
CHICAGO-OHARE  CLOUDY    35  31  85 NW9       29.58R WCI  28
CHICAGO-MIDWAY MOCLDY    37  32  82 W9        29.58S WCI  30
MOLINE         LGT SNOW  33  28  81 NW9       29.70R WCI  25
ROCKFORD       FRZ DRZL  30  26  85 N10       29.64S WCI  21
PEORIA         CLOUDY    37  31  78 W16G22    29.68R WCI  28
$$

NOTE: "FAIR" INDICATES FEW OR NO CLOUDS BELOW 12,000 FEET WITH NO
SIGNIFICANT WEATHER AND/OR OBSTRUCTIONS TO VISIBILITY. WIND
SPEEDS ARE IN MILES-PER-HOUR.




USA.gov is the U.S. government's official web portal to all federal, state and local government web resources and services.